EI4HQ Weather Reports


Display with metric or nautical units.
time (UTC)temp
F
wind
direction
speed
MPH
gust
MPH
rain 1hr
in
rain 24hr
in
rain mn
in
humidity
%
barometer
mb
20180718065452 59 315 0.0 3.0 0.00 0.00 0.00 86 1016.2
20180718064550 58 297 1.0 3.0 0.00 0.00 0.00 87 1016.2
20180718063650 58 275 1.0 6.0 0.00 0.00 0.00 87 1016.1
20180718062749 58 277 1.0 4.0 0.00 0.00 0.00 88 1016.1
20180718061850 57 303 0.0 4.0 0.00 0.00 0.00 88 1016.0
20180718060950 57 273 1.0 4.0 0.00 0.00 0.00 88 1015.9
20180718060050 57 282 1.0 3.0 0.00 0.00 0.00 89 1015.8
20180718055149 57 265 0.0 2.0 0.00 0.00 0.00 89 1015.8
20180718054250 57 0 0.0 0.0 0.00 0.00 0.00 89 1015.7
20180718053349 57 0 0.0 0.0 0.00 0.00 0.00 89 1015.6
20180718052450 56 276 0.0 2.0 0.00 0.00 0.00 89 1015.6
20180718051549 56 280 0.0 2.0 0.00 0.00 0.00 89 1015.5
20180718050649 56 280 0.0 2.0 0.00 0.00 0.00 89 1015.5
20180718045749 56 279 0.0 2.0 0.00 0.00 0.00 89 1015.4
20180718044849 56 286 0.0 2.0 0.00 0.00 0.00 89 1015.4
20180718043949 56 275 1.0 3.0 0.00 0.00 0.00 88 1015.3
20180718043049 56 274 0.0 3.0 0.00 0.00 0.00 88 1015.2
20180718042149 56 273 1.0 3.0 0.00 0.00 0.00 88 1015.1
20180718041249 56 273 1.0 4.0 0.00 0.00 0.00 88 1015.1
20180718040349 57 278 1.0 4.0 0.00 0.00 0.00 87 1015.0
20180718035449 57 273 1.0 4.0 0.00 0.00 0.00 87 1015.0
20180718034549 57 270 0.0 2.0 0.00 0.00 0.00 87 1015.0
20180718033649 57 279 1.0 4.0 0.00 0.00 0.00 87 1015.0
20180718032749 57 325 1.0 3.0 0.00 0.00 0.00 87 1014.8
20180718031849 57 302 0.0 2.0 0.00 0.00 0.00 86 1014.8
20180718030949 57 314 0.0 2.0 0.00 0.00 0.00 85 1014.8
20180718030049 57 305 1.0 4.0 0.00 0.00 0.00 85 1014.7
20180718025149 57 309 1.0 3.0 0.00 0.00 0.00 85 1014.8
20180718024249 57 303 1.0 4.0 0.00 0.00 0.00 85 1014.7
20180718023349 57 295 1.0 4.0 0.00 0.00 0.00 86 1014.8
20180718022449 58 327 0.0 2.0 0.00 0.00 0.00 85 1014.8
20180718021549 58 339 1.0 3.0 0.00 0.00 0.00 85 1014.8
20180718020649 58 343 2.0 5.0 0.00 0.00 0.00 85 1014.8
20180718015749 58 333 2.0 5.0 0.00 0.00 0.00 85 1014.8
20180718014849 58 325 2.0 6.0 0.00 0.00 0.00 85 1014.8
20180718013949 58 329 2.0 5.0 0.00 0.00 0.00 84 1014.7
20180718013049 58 330 2.0 5.0 0.00 0.00 0.00 84 1014.8
20180718012149 58 330 3.0 6.0 0.00 0.00 0.00 84 1014.7
20180718011249 58 338 5.0 9.0 0.00 0.00 0.00 84 1014.7
20180718010349 58 338 4.0 9.0 0.00 0.00 0.00 83 1014.8
20180718005449 58 339 4.0 9.0 0.00 0.00 0.00 83 1014.8
20180718004549 58 338 5.0 10.0 0.00 0.00 0.00 83 1014.8
20180718003649 58 338 6.0 12.0 0.00 0.00 0.00 83 1014.7
20180718002749 58 338 5.0 10.0 0.00 0.00 0.00 83 1014.7
20180718001849 58 337 5.0 10.0 0.00 0.00 0.00 82 1014.7
20180718000949 58 337 4.0 9.0 0.00 0.00 0.00 81 1014.6
20180718000051 58 335 6.0 12.0 0.00 0.00 0.00 79 1014.5
20180717235149 59 335 6.0 13.0 0.00 0.00 0.00 78 1014.5
20180717234249 59 338 6.0 10.0 0.00 0.00 0.00 77 1014.5
20180717233349 59 339 6.0 11.0 0.00 0.00 0.00 76 1014.5
20180717232449 60 339 6.0 11.0 0.00 0.00 0.00 75 1014.5
20180717231549 60 338 6.0 11.0 0.00 0.00 0.00 75 1014.4
20180717230649 60 340 5.0 12.0 0.00 0.00 0.00 74 1014.5
20180717225749 60 339 4.0 11.0 0.00 0.00 0.00 75 1014.5
20180717224849 60 339 5.0 12.0 0.00 0.00 0.00 74 1014.5
20180717223949 61 341 7.0 12.0 0.00 0.00 0.00 73 1014.4
20180717223049 61 337 6.0 11.0 0.00 0.00 0.00 74 1014.4
20180717222149 61 336 4.0 11.0 0.00 0.00 0.00 74 1014.3
20180717221249 61 337 5.0 10.0 0.00 0.00 0.00 74 1014.2
20180717220349 61 336 4.0 10.0 0.00 0.00 0.00 77 1014.2
20180717215449 61 338 4.0 9.0 0.00 0.00 0.00 78 1014.2
20180717214549 61 336 2.0 5.0 0.00 0.00 0.00 79 1014.1
20180717213649 61 312 2.0 5.0 0.00 0.00 0.00 79 1014.1
20180717212749 61 295 1.0 6.0 0.00 0.00 0.00 79 1014.1
20180717211849 60 298 1.0 6.0 0.00 0.00 0.00 81 1014.0
20180717210949 60 291 1.0 3.0 0.00 0.00 0.00 80 1013.9
20180717210049 61 273 2.0 7.0 0.00 0.00 0.00 80 1013.8
20180717205149 61 259 4.0 9.0 0.00 0.00 0.00 80 1013.8
20180717204249 61 256 3.0 8.0 0.00 0.00 0.00 80 1013.7
20180717203349 61 248 3.0 9.0 0.00 0.00 0.00 79 1013.5
20180717202449 62 247 3.0 7.0 0.00 0.00 0.00 78 1013.5
20180717201549 62 253 3.0 8.0 0.00 0.00 0.00 78 1013.5
20180717200649 62 247 3.0 9.0 0.00 0.00 0.00 77 1013.4
20180717195749 62 241 3.0 9.0 0.00 0.00 0.00 77 1013.4
20180717194849 63 236 4.0 10.0 0.00 0.00 0.00 76 1013.4
20180717193949 63 235 4.0 10.0 0.00 0.00 0.00 75 1013.3
20180717193049 64 233 4.0 10.0 0.00 0.00 0.00 74 1013.3
20180717192149 64 233 5.0 10.0 0.00 0.00 0.00 73 1013.3
20180717191249 65 238 4.0 10.0 0.00 0.00 0.00 72 1013.2
20180717190349 65 237 5.0 14.0 0.00 0.00 0.00 72 1013.2
20180717185449 65 235 6.0 15.0 0.00 0.00 0.00 72 1013.1
20180717184549 65 222 5.0 12.0 0.00 0.00 0.00 73 1012.9
20180717183649 65 190 5.0 10.0 0.00 0.00 0.00 74 1012.8
20180717182749 65 191 6.0 14.0 0.00 0.00 0.00 73 1012.8
20180717181849 65 191 6.0 11.0 0.00 0.00 0.00 73 1012.8
20180717180949 66 185 7.0 15.0 0.00 0.00 0.00 72 1012.8
20180717180049 66 190 6.0 11.0 0.00 0.00 0.00 72 1012.7
20180717175149 67 198 5.0 11.0 0.00 0.00 0.00 71 1012.7
20180717174249 67 169 8.0 13.0 0.00 0.00 0.00 71 1012.7
20180717173349 68 168 8.0 13.0 0.00 0.00 0.00 71 1012.8
20180717172449 67 179 7.0 13.0 0.00 0.00 0.00 71 1012.8
20180717171549 67 193 5.0 9.0 0.00 0.00 0.00 69 1012.8
20180717170649 69 186 8.0 16.0 0.00 0.00 0.00 66 1012.8
20180717165749 71 178 7.0 12.0 0.00 0.00 0.00 63 1012.8
20180717164849 72 177 7.0 11.0 0.00 0.00 0.00 63 1012.8
20180717163949 70 194 4.0 8.0 0.00 0.00 0.00 68 1012.9
20180717163049 68 212 4.0 11.0 0.00 0.00 0.00 70 1013.0
20180717162149 67 201 6.0 12.0 0.00 0.00 0.00 70 1013.0
20180717161249 67 183 7.0 14.0 0.00 0.00 0.00 69 1012.9
20180717160349 67 186 7.0 14.0 0.00 0.00 0.00 71 1012.9
20180717155449 66 186 8.0 16.0 0.00 0.00 0.00 70 1012.9
20180717154549 66 181 8.0 16.0 0.00 0.00 0.00 70 1012.9
20180717153649 67 176 10.0 17.0 0.00 0.00 0.00 71 1012.9
20180717152749 68 176 11.0 18.0 0.00 0.00 0.00 72 1013.0
20180717151849 68 175 11.0 17.0 0.00 0.00 0.00 71 1013.2
20180717150949 69 179 11.0 18.0 0.00 0.00 0.00 69 1013.1
20180717150049 69 185 6.0 13.0 0.00 0.00 0.00 69 1013.2
20180717145149 67 179 8.0 16.0 0.00 0.00 0.00 74 1013.2
20180717144249 66 184 8.0 14.0 0.00 0.00 0.00 73 1013.3
20180717143349 67 175 8.0 15.0 0.00 0.00 0.00 73 1013.3
20180717142449 67 170 9.0 14.0 0.00 0.00 0.00 76 1013.4
20180717141549 65 173 9.0 14.0 0.00 0.00 0.00 79 1013.4
20180717140649 64 172 7.0 12.0 0.00 0.00 0.00 81 1013.5
20180717135749 64 177 7.0 13.0 0.00 0.00 0.00 80 1013.6
20180717134849 65 179 5.0 11.0 0.00 0.00 0.00 80 1013.6
20180717133949 64 188 4.0 8.0 0.00 0.00 0.00 80 1013.6
20180717133049 63 158 3.0 8.0 0.00 0.00 0.00 83 1013.6
20180717132149 63 157 6.0 10.0 0.00 0.00 0.00 82 1013.7
20180717131249 64 150 6.0 10.0 0.00 0.00 0.00 79 1013.7
20180717130349 65 151 8.0 12.0 0.00 0.00 0.00 76 1013.7
20180717125449 66 167 9.0 14.0 0.00 0.00 0.00 75 1013.6
20180717124549 66 174 10.0 16.0 0.00 0.00 0.00 76 1013.7
20180717123649 64 177 10.0 15.0 0.00 0.00 0.00 78 1013.8
20180717122749 64 183 9.0 20.0 0.00 0.00 0.00 76 1013.8
20180717121849 65 185 7.0 16.0 0.00 0.00 0.00 74 1013.8
20180717120949 65 192 3.0 11.0 0.00 0.00 0.00 74 1013.9
20180717120051 66 191 5.0 12.0 0.00 0.00 0.00 73 1014.0
20180717115149 67 208 4.0 10.0 0.00 0.00 0.00 69 1014.0
20180717114249 68 184 5.0 8.0 0.00 0.00 0.00 70 1014.0
20180717113349 67 179 5.0 9.0 0.00 0.00 0.00 70 1014.1
20180717112449 66 195 4.0 8.0 0.00 0.00 0.00 73 1014.1
20180717111549 65 214 5.0 12.0 0.00 0.00 0.00 75 1014.2
20180717110649 65 196 5.0 9.0 0.00 0.00 0.00 73 1014.2
20180717105749 65 198 5.0 9.0 0.00 0.00 0.00 74 1014.3
20180717104849 65 189 4.0 7.0 0.00 0.00 0.00 75 1014.3
20180717103949 65 200 4.0 9.0 0.00 0.00 0.00 73 1014.4
20180717103049 65 211 4.0 10.0 0.00 0.00 0.00 72 1014.3
20180717102149 64 217 3.0 13.0 0.00 0.00 0.00 71 1014.3
20180717101249 64 199 3.0 6.0 0.00 0.00 0.00 70 1014.3
20180717100349 65 219 3.0 7.0 0.00 0.00 0.00 68 1014.3
20180717095449 65 201 3.0 9.0 0.00 0.00 0.00 69 1014.3
20180717094549 65 227 3.0 9.0 0.00 0.00 0.00 68 1014.3
20180717093649 65 220 3.0 7.0 0.00 0.00 0.00 70 1014.3
20180717092749 64 221 3.0 7.0 0.00 0.00 0.00 71 1014.4
20180717091849 63 211 3.0 7.0 0.00 0.00 0.00 71 1014.4
20180717090949 63 225 3.0 7.0 0.00 0.00 0.00 70 1014.4
20180717090049 62 232 3.0 8.0 0.00 0.00 0.00 73 1014.4
20180717085149 62 236 3.0 10.0 0.00 0.00 0.00 72 1014.3
20180717084249 62 232 2.0 5.0 0.00 0.00 0.00 73 1014.3
20180717083349 62 226 2.0 5.0 0.00 0.00 0.00 74 1014.3
20180717082450 62 225 3.0 6.0 0.00 0.00 0.00 75 1014.1
20180717081550 62 170 3.0 6.0 0.00 0.00 0.00 76 1014.1
20180717080650 61 158 3.0 6.0 0.00 0.00 0.00 78 1014.2
20180717075749 61 154 3.0 5.0 0.00 0.00 0.00 79 1014.2
20180717074850 61 157 2.0 5.0 0.00 0.00 0.00 79 1014.2
20180717073949 61 168 1.0 4.0 0.00 0.00 0.00 80 1014.2
20180717073050 61 161 2.0 3.0 0.00 0.00 0.00 80 1014.2
20180717072149 60 214 0.0 2.0 0.00 0.00 0.00 81 1014.3
20180717071250 60 191 1.0 3.0 0.00 0.00 0.00 82 1014.4
20180717070349 59 221 1.0 3.0 0.00 0.00 0.00 82 1014.4